Tracking 17141 objects as of 6-July-2015
HD Live streaming from Space Station

SL-3 DEB

Track SL-3 DEB now!
10-day predictions
SL-3 DEB is classified as:


NORAD ID: 14928
Int'l Code: 1983-075F
Perigee: 517.7 km
Apogee: 566.2 km
Inclination: 97.8 °
Period: 95.3 minutes
Semi major axis: 6912 km
RCS: 0.0341 m2 (small)
Launch date: July 24, 1983
Source: Commonwealth of Independent States (former USSR) (CIS)

Note: This is SATELLITE DEBRIS
Your satellite tracking list
Your tracking list is empty





NASA's NSSDC Master Catalog

Two Line Element Set (TLE):
1 14928U 83075F   15186.09146932  .00001950  00000-0  12105-3 0  9999
2 14928 097.7944 306.5527 0035055 130.5605 281.8803 15.10456780712661

Source of the keplerian elements: AFSPC

N2YO: 209